Regional Weather Roundup
Issued by NWS

Home | Current Version | Previous Version | Graphics & Text | Print | Product List | Glossary Off
Versions: 1 2 3 4 5 6 7 8 9 10 11 12 13 14 15 16 17 18 19 20 21 22 23 24 25 26 27 28 29 30 31 32 33 34 35 36 37 38 39 40 41 42 43 44 45 46 47 48 49 50

405
ASUS43 KTOP 141808
RWRKS

WEATHER ROUNDUP FOR KANSAS
NATIONAL WEATHER SERVICE GOODLAND KS
1200 PM CST SUN FEB 14 2016

NOTE:  "FAIR" INDICATES FEW OR NO CLOUDS BELOW 12,000 FEET WITH NO
SIGNIFICANT WEATHER AND/OR OBSTRUCTIONS TO VISIBILITY.

KSZ001>006-013>018-027>032-041>047-141900-
NORTHWEST KANSAS

CITY           SKY/WX    TMP DP  RH WIND       PRES   REMARKS
GOODLAND       CLOUDY    46  23  40 W10       29.96R
6HR MIN TEMP:  24; 6HR MAX TEMP:  47;

HAYS           SUNNY     54  25  32 N10       29.93F
HILL CITY      CLOUDY    50  28  42 W8        29.94S
6HR MIN TEMP:  30; 6HR MAX TEMP:  51;

RUSSELL        SUNNY     54  27  35 N10       29.92S
6HR MIN TEMP:  19; 6HR MAX TEMP:  54;

$$

KSZ061>065-074>080-084>089-141900-
SOUTHWEST KANSAS

CITY           SKY/WX    TMP DP  RH WIND       PRES   REMARKS
DODGE CITY     CLOUDY    50  23  34 NE6       29.97F
6HR MIN TEMP:  25; 6HR MAX TEMP:  50;

ELKHART          N/A     50  24  36 NE2         N/A
GARDEN CITY    CLOUDY    49  23  36 VRB5      29.97F
6HR MIN TEMP:  23; 6HR MAX TEMP:  49;

GREAT BEND     CLOUDY    52  27  37 N7        29.95S
LIBERAL        SUNNY     50  27  40 N3        30.00F
PRATT          SUNNY     49  26  41 NE7       29.96F
6HR MIN TEMP:  18; 6HR MAX TEMP:  49;

$$

KSZ066>073-081>083-090>101-141900-
SOUTHEAST KANSAS

CITY           SKY/WX    TMP DP  RH WIND       PRES   REMARKS
CHANUTE        SUNNY     50  25  37 W7        29.95F
6HR MIN TEMP:  33; 6HR MAX TEMP:  50;

COFFEYVILLE    SUNNY     50  27  40 S5        29.96F
6HR MIN TEMP:  38; 6HR MAX TEMP:  50;

HUTCHINSON     SUNNY     47  24  40 CALM      29.95F
6HR MIN TEMP:  16; 6HR MAX TEMP:  48;

MEDICINE LODGE   N/A     48  25  40 CALM      29.98F
NEWTON         SUNNY     45  23  42 SW7       29.96F
PARSONS        SUNNY     51  27  39 W6        29.96F
6HR MIN TEMP:  38; 6HR MAX TEMP:  51;

WICHITA INTL   MOSUNNY   48  24  39 W10       29.96F
6HR MIN TEMP:  24; 6HR MAX TEMP:  49;

WICHITA JABRA  SUNNY     48  24  39 W8        29.95F
6HR MIN TEMP:  20; 6HR MAX TEMP:  48;

WICHITA MCCONL SUNNY     47  24  41 SW7       29.96F
WINFIELD       SUNNY     48  25  40 SW10      29.98F
6HR MIN TEMP:  27; 6HR MAX TEMP:  48;

$$

KSZ007>012-019>026-033>040-048>060-102>105-141900-
NORTHEAST KANSAS

CITY           SKY/WX    TMP DP  RH WIND       PRES   REMARKS
CONCORDIA      CLOUDY    49  28  44 NW9       29.90S
6HR MIN TEMP:  18; 6HR MAX TEMP:  49;

EMPORIA        SUNNY     49  25  39 N5        29.91F
6HR MIN TEMP:  18; 6HR MAX TEMP:  49;

LAWRENCE       SUNNY     42  22  44 SW10      29.93F
6HR MIN TEMP:  17; 6HR MAX TEMP:  42;

MANHATTAN      SUNNY     45  23  42 W6        29.91F
6HR MIN TEMP:  15; 6HR MAX TEMP:  45;

MARYSVILLE     SUNNY     45  28  53 W10       29.88F
OLATHE IND     SUNNY     41  26  55 SW10G21   29.93F
6HR MIN TEMP:  22; 6HR MAX TEMP:  41;

OLATHE EXE     SUNNY     39  24  55 SW13G20   29.93F WCI  31
6HR MIN TEMP:  23; 6HR MAX TEMP:  39;

SALINA         SUNNY     53  27  36 N14       29.93F
6HR MIN TEMP:  18; 6HR MAX TEMP:  54;

TOPEKA BILLARD SUNNY     44  20  38 W8        29.93F
6HR MIN TEMP:  19; 6HR MAX TEMP:  44;

TOPEKA FORBES  SUNNY     43  23  45 SW7       29.92F
6HR MIN TEMP:  19; 6HR MAX TEMP:  43;

$$




USA.gov is the U.S. government's official web portal to all federal, state and local government web resources and services.